User: anonymous   Login
Location: Unspecified
(0.0000°N, 0.0000°E)
Time: 22:04:11
(UTC+00:00)
Language:

ESTCUBE 1 - Orbit

View from above orbital plane
View from above orbital plane
View from above satellite
View from above satellite

Ground track
Ground track

The orbit data is extracted from the following two-line orbital elements,

1 39161U 13021C   20184.23179650  .00000099  00000-0  23462-4 0  9994
2 39161  97.9642 266.9665 0009273 184.9209 175.1909 14.72327545384213
Epoch (UTC): 02 July 2020 05:33:47
Eccentricity: 0.0009273
inclination: 97.9642°
perigee height: 647 km
apogee height: 660 km
right ascension of ascending node: 266.9665°
argument of perigee: 184.9209°
revolutions per day: 14.72327545
mean anomaly at epoch: 175.1909°
orbit number at epoch: 38421

The dashed part of the orbit path shows where the satellite is in the earth's shadow,  

DLR